DW5338 Weather Reports


time (UTC)temp
F
wind
direction
speed
knots
gust
knots
rain 1hr
in
rain 24hr
in
rain mn
in
humidity
%
barometer
mb
20210801193356 61 45 2.6 11.3 0.00 0.43 0.00 79 1031.1
20210801192900 61 67 2.6 7.8 0.00 0.45 0.00 79 1031.1
20210801192355 61 0 5.2 7.0 0.00 0.45 0.00 80 1030.8
20210801191855 61 112 2.6 7.0 0.00 0.45 0.00 82 1031.1
20210801191356 60 90 4.3 7.0 0.00 0.47 0.00 84 1031.4
20210801190900 59 90 0.9 4.3 0.00 0.47 0.00 84 1031.4
20210801190355 58 135 3.5 5.2 0.00 0.49 0.00 84 1031.4
20210801185856 58 90 1.7 5.2 0.00 0.49 0.00 83 1031.4
20210801185356 58 67 1.7 4.3 0.00 0.50 0.00 83 1031.4
20210801184900 58 67 3.5 4.3 0.00 0.50 0.00 83 1031.4
20210801184400 58 22 3.5 4.3 0.00 0.50 0.00 82 1031.4
20210801183855 58 270 0.9 4.3 0.00 0.50 0.00 83 1031.8
20210801183355 59 22 1.7 4.3 0.00 0.50 0.00 83 1031.8
20210801182856 59 247 0.0 4.3 0.00 0.50 0.00 82 1031.8
20210801182356 59 45 2.6 5.2 0.00 0.50 0.00 83 1031.4
20210801181855 59 22 2.6 6.1 0.00 0.50 0.00 83 1031.4
20210801181400 59 45 4.3 6.1 0.00 0.50 0.00 83 1031.8
20210801180855 59 90 3.5 5.2 0.00 0.50 0.00 83 1031.8
20210801180356 59 112 5.2 6.1 0.00 0.50 0.00 82 1031.8
20210801175855 59 90 4.3 5.2 0.00 0.50 0.00 82 1031.8
20210801175355 59 22 2.6 6.1 0.00 0.50 0.00 81 1031.8
20210801174855 59 22 4.3 7.8 0.00 0.50 0.00 80 1031.8
20210801174355 59 45 6.1 7.8 0.00 0.50 0.00 81 1032.1
20210801173855 59 22 1.7 5.2 0.00 0.50 0.00 80 1031.8
20210801173355 59 90 4.3 7.0 0.00 0.50 0.00 80 1031.8
20210801172855 59 90 2.6 7.0 0.00 0.50 0.00 79 1032.1
20210801172355 59 22 0.9 5.2 0.00 0.50 0.00 79 1031.8
20210801171855 59 22 0.0 4.3 0.00 0.50 0.00 78 1031.8
20210801171355 59 45 0.9 4.3 0.00 0.50 0.00 79 1031.9
20210801170855 59 0 4.3 7.0 0.00 0.50 0.00 79 1032.2
20210801170355 59 45 2.6 4.3 0.00 0.50 0.00 78 1031.9
20210801165855 59 67 2.6 4.3 0.00 0.50 0.00 78 1031.9
20210801165355 59 112 3.5 5.2 0.00 0.50 0.00 76 1031.9
20210801164855 59 90 0.9 4.3 0.00 0.50 0.00 77 1031.9
20210801164356 58 0 3.5 5.2 0.00 0.50 0.00 77 1031.9
20210801163855 58 202 1.7 5.2 0.00 0.50 0.00 77 1031.9
20210801163355 58 112 1.7 5.2 0.00 0.50 0.00 77 1031.9
20210801162855 58 180 2.6 5.2 0.00 0.50 0.00 77 1031.9
20210801162355 58 135 0.9 7.8 0.00 0.50 0.00 79 1031.9
20210801161855 57 157 2.6 4.3 0.00 0.50 0.00 81 1031.9
20210801161355 57 225 0.9 4.3 0.00 0.50 0.00 81 1031.9
20210801160855 56 157 1.7 5.2 0.00 0.50 0.00 82 1031.6
20210801160355 56 247 2.6 3.5 0.00 0.50 0.00 83 1031.6
20210801155855 55 225 0.9 4.3 0.00 0.50 0.00 83 1031.7
20210801155355 54 180 3.5 5.2 0.00 0.50 0.00 85 1032.0
20210801154855 54 292 0.9 3.5 0.00 0.50 0.00 86 1031.7
20210801154355 53 112 4.3 4.3 0.00 0.50 0.00 88 1032.0
20210801153855 53 202 2.6 2.6 0.00 0.50 0.00 90 1032.0
20210801153355 52 270 0.9 2.6 0.00 0.50 0.00 93 1032.0
20210801152855 52 157 0.9 2.6 0.00 0.50 0.00 94 1032.0
20210801152356 52 270 2.6 2.6 0.00 0.50 0.00 95 1032.0
20210801151855 52 292 0.9 2.6 0.00 0.50 0.00 96 1032.0
20210801151355 52 247 1.7 4.3 0.00 0.50 0.00 96 1032.0
20210801150855 51 247 2.6 5.2 0.00 0.50 0.00 97 1032.0
20210801150355 51 225 4.3 4.3 0.00 0.50 0.00 97 1032.0
20210801145855 51 225 0.9 3.5 0.00 0.50 0.00 97 1032.0
20210801145355 51 225 3.5 4.3 0.00 0.50 0.00 98 1032.0
20210801144855 50 225 2.6 4.3 0.00 0.50 0.00 98 1032.0
20210801144355 50 247 4.3 4.3 0.00 0.50 0.00 98 1032.0
20210801143855 50 225 4.3 5.2 0.00 0.50 0.00 98 1032.0
20210801143355 49 225 4.3 7.0 0.00 0.50 0.00 98 1031.7
20210801142855 49 225 5.2 5.2 0.00 0.50 0.00 98 1032.1
20210801142355 49 247 4.3 6.1 0.00 0.50 0.00 98 1031.8
20210801141855 49 247 5.2 7.8 0.00 0.50 0.00 98 1031.8
20210801141355 49 225 2.6 7.0 0.00 0.50 0.00 98 1031.8
20210801140855 49 202 4.3 7.8 0.00 0.50 0.00 98 1032.1
20210801140355 48 225 4.3 8.7 0.00 0.50 0.00 98 1032.1
20210801135855 48 202 5.2 7.0 0.00 0.50 0.00 99 1032.1
20210801135355 48 225 4.3 6.1 0.00 0.50 0.00 99 1031.8
20210801134855 48 225 5.2 6.1 0.00 0.50 0.00 99 1032.1
20210801134355 48 202 5.2 5.2 0.00 0.50 0.00 99 1032.1
20210801133855 48 225 5.2 5.2 0.00 0.50 0.00 99 1032.1
20210801133356 48 202 4.3 7.0 0.00 0.50 0.00 99 1032.1
20210801132855 48 202 5.2 6.1 0.00 0.50 0.00 99 1032.1
20210801132355 48 247 3.5 5.2 0.00 0.50 0.00 99 1032.1
20210801131855 48 202 4.3 7.0 0.00 0.50 0.00 99 1032.1
20210801131355 48 247 7.0 7.0 0.00 0.50 0.00 100 1032.1
20210801130855 48 202 3.5 7.0 0.00 0.50 0.00 100 1032.2
20210801130355 48 247 4.3 7.0 0.00 0.50 0.00 100 1031.9
20210801125855 48 247 4.3 6.1 0.00 0.50 0.00 100 1031.9
20210801125355 48 202 4.3 6.1 0.00 0.50 0.00 100 1031.9
20210801124855 48 225 5.2 6.1 0.00 0.50 0.00 100 1031.9
20210801124355 48 225 4.3 7.0 0.00 0.50 0.00 100 1031.9
20210801123855 48 225 3.5 5.2 0.00 0.50 0.00 100 1031.9
20210801123355 48 202 4.3 5.2 0.00 0.50 0.00 100 1031.9
20210801122855 48 225 3.5 5.2 0.00 0.50 0.00 100 1032.0
20210801122355 48 225 3.5 6.1 0.00 0.50 0.00 100 1032.0
20210801121855 48 225 4.3 6.1 0.00 0.50 0.00 100 1032.0
20210801121355 48 225 4.3 5.2 0.00 0.50 0.00 100 1032.0
20210801120855 48 247 3.5 8.7 0.00 0.50 0.00 100 1032.0
20210801120355 48 225 4.3 7.0 0.00 0.50 0.00 100 1031.7
20210801115855 48 225 4.3 5.2 0.00 0.50 0.00 100 1031.7
20210801115355 48 225 2.6 4.3 0.00 0.50 0.00 100 1031.8
20210801114855 48 247 2.6 4.3 0.00 0.50 0.00 100 1031.8
20210801114355 48 247 2.6 4.3 0.00 0.50 0.00 100 1031.8
20210801113855 48 270 1.7 5.2 0.00 0.50 0.00 100 1031.8
20210801113355 48 247 3.5 5.2 0.00 0.50 0.00 100 1031.5
20210801112855 48 202 3.5 6.1 0.00 0.50 0.00 100 1031.8
20210801112355 48 225 5.2 7.0 0.00 0.50 0.00 100 1031.9
20210801111855 48 225 6.1 7.0 0.00 0.50 0.00 100 1031.9
20210801111355 48 202 5.2 7.0 0.00 0.50 0.00 100 1031.9
20210801110855 48 247 5.2 6.1 0.00 0.50 0.00 100 1031.9
20210801110355 48 247 4.3 7.0 0.00 0.50 0.00 100 1031.9
20210801105855 48 202 4.3 6.1 0.00 0.50 0.00 100 1031.6
20210801105355 48 202 4.3 7.0 0.00 0.50 0.00 100 1031.6
20210801104855 48 225 5.2 6.1 0.00 0.50 0.00 100 1031.6
20210801104355 48 225 3.5 5.2 0.00 0.50 0.00 100 1031.6
20210801103855 48 247 4.3 5.2 0.00 0.50 0.00 100 1031.7
20210801103355 48 202 4.3 6.1 0.00 0.50 0.00 100 1031.7
20210801102855 48 247 4.3 7.0 0.00 0.50 0.00 100 1031.7
20210801102355 48 247 6.1 7.0 0.00 0.50 0.00 100 1031.7
20210801101855 48 225 4.3 7.0 0.00 0.50 0.00 100 1031.7
20210801101355 48 202 4.3 6.1 0.00 0.50 0.00 100 1031.7
20210801100855 48 247 4.3 6.1 0.00 0.50 0.00 100 1031.7
20210801100355 48 225 3.5 6.1 0.00 0.50 0.00 100 1031.7
20210801095855 48 225 4.3 5.2 0.00 0.50 0.00 100 1031.7
20210801095355 48 270 4.3 6.1 0.00 0.50 0.00 100 1031.4
20210801094855 48 247 4.3 7.0 0.00 0.50 0.00 100 1031.8
20210801094355 49 202 5.2 6.1 0.00 0.50 0.00 100 1031.4
20210801093855 49 247 4.3 6.1 0.00 0.50 0.00 100 1031.4
20210801093355 49 180 5.2 7.0 0.00 0.50 0.00 100 1031.4
20210801092855 49 225 5.2 7.0 0.00 0.50 0.00 100 1031.4
20210801092355 49 247 4.3 5.2 0.00 0.50 0.00 100 1031.5
20210801091855 49 247 5.2 6.1 0.00 0.50 0.00 100 1031.5
20210801091355 49 225 3.5 5.2 0.00 0.50 0.00 100 1031.5
20210801090855 49 225 4.3 6.1 0.00 0.50 0.00 100 1031.5
20210801090355 49 225 4.3 5.2 0.00 0.50 0.00 100 1031.5
20210801085855 49 225 4.3 6.1 0.00 0.50 0.00 100 1031.5
20210801085355 49 247 3.5 5.2 0.00 0.50 0.00 100 1031.5
20210801084855 49 225 2.6 4.3 0.00 0.50 0.00 100 1031.5
20210801084355 49 202 3.5 5.2 0.00 0.50 0.00 100 1031.5
20210801083855 50 225 5.2 7.0 0.00 0.50 0.00 100 1031.5
20210801083355 50 202 4.3 5.2 0.00 0.50 0.00 100 1031.9
20210801082856 50 247 3.5 5.2 0.00 0.50 0.00 100 1031.9
20210801082356 50 247 4.3 6.1 0.00 0.52 0.00 100 1031.5
20210801081855 50 247 4.3 6.1 0.00 0.52 0.00 100 1031.9
20210801081355 50 225 4.3 5.2 0.00 0.52 0.00 100 1031.6
20210801080855 50 202 4.3 5.2 0.00 0.52 0.00 100 1031.6
20210801080355 50 225 3.5 5.2 0.00 0.53 0.00 100 1031.6
20210801075855 50 225 4.3 5.2 0.00 0.53 0.00 100 1031.9
20210801075355 50 225 2.6 5.2 0.00 0.53 0.00 100 1031.9
20210801074855 50 247 3.5 4.3 0.00 0.53 0.00 100 1031.9
20210801074355 50 202 2.6 5.2 0.00 0.53 0.00 100 1031.9
20210801073855 50 202 2.6 4.3 0.00 0.55 0.00 100 1032.2
20210801073355 50 225 3.5 4.3 0.00 0.55 0.00 100 1031.9
20210801072855 50 270 2.6 5.2 0.00 0.55 0.00 100 1032.3
20210801072355 50 247 5.2 5.2 0.00 0.56 0.00 100 1032.3
20210801071855 50 225 2.6 7.0 0.00 0.56 0.00 100 1032.3
20210801071355 50 202 5.2 5.2 0.00 0.56 0.00 100 1032.3
20210801070855 51 225 4.3 5.2 0.00 0.58 0.00 100 1032.3
20210801070355 51 247 4.3 5.2 0.00 0.58 0.00 100 1032.3
20210801065855 51 247 3.5 5.2 0.00 0.58 0.00 100 1032.3
20210801065355 51 247 3.5 6.1 0.00 0.58 0.00 100 1032.6
20210801064855 51 202 3.5 5.2 0.00 0.58 0.00 100 1032.6
20210801064355 51 202 3.5 5.2 0.00 0.59 0.00 100 1032.6
20210801063855 51 270 2.6 5.2 0.00 0.59 0.00 100 1032.6
20210801063355 51 225 4.3 4.3 0.00 0.59 0.00 100 1032.6
20210801062855 51 270 4.3 5.2 0.00 0.59 0.00 100 1032.6
20210801062355 51 202 4.3 5.2 0.00 0.59 0.00 100 1032.6
20210801061855 51 202 2.6 5.2 0.00 0.59 0.00 100 1032.6
20210801061356 51 247 2.6 5.2 0.00 0.59 0.00 100 1032.6
20210801060855 51 225 4.3 5.2 0.00 0.59 0.00 100 1032.6
20210801060355 52 180 3.5 4.3 0.00 0.59 0.00 100 1032.6
20210801055855 52 202 3.5 5.2 0.00 0.59 0.00 100 1032.3
20210801055355 52 202 5.2 5.2 0.00 0.59 0.00 100 1032.3
20210801054855 52 225 2.6 2.6 0.00 0.59 0.00 100 1032.3
20210801054355 52 247 1.7 2.6 0.00 0.59 0.00 100 1032.3
20210801053855 52 270 0.9 2.6 0.00 0.59 0.00 100 1032.3
20210801053355 52 270 1.7 2.6 0.00 0.59 0.00 100 1032.3
20210801052855 52 270 1.7 2.6 0.00 0.59 0.00 100 1032.3
20210801052355 52 270 0.9 1.7 0.00 0.59 0.00 100 1032.3
20210801051855 52 247 1.7 1.7 0.00 0.59 0.00 100 1032.3
20210801051355 52 247 0.0 0.9 0.00 0.59 0.00 100 1032.3
20210801050855 52 292 0.9 0.9 0.00 0.59 0.00 100 1032.3
20210801050355 52 247 0.0 1.7 0.00 0.59 0.00 100 1032.3
20210801045855 52 315 0.0 1.7 0.00 0.61 0.00 99 1032.3
20210801045355 52 315 0.9 2.6 0.00 0.61 0.00 100 1032.3
20210801044855 52 22 1.7 2.6 0.00 0.62 0.00 100 1032.3
20210801044355 52 0 0.9 1.7 0.00 0.62 0.00 100 1032.3
20210801043855 52 270 1.7 2.6 0.00 0.63 0.00 100 1032.3
20210801043355 52 292 0.9 3.5 0.00 0.63 0.00 100 1032.3
20210801042855 52 247 1.7 2.6 0.00 0.65 0.00 100 1032.3
20210801042355 52 247 1.7 2.6 0.00 0.65 0.00 100 1032.3
20210801041855 52 247 0.9 2.6 0.00 0.66 0.00 100 1032.3
20210801041355 52 247 2.6 3.5 0.00 0.66 0.00 100 1032.3
20210801040855 52 225 2.6 3.5 0.00 0.68 0.00 100 1032.3
20210801040355 52 247 1.7 3.5 0.00 0.70 0.00 100 1032.3
20210801035855 52 247 2.6 4.3 0.00 0.70 0.00 100 1032.3
20210801035355 52 202 2.6 4.3 0.00 0.70 0.00 100 1032.0
20210801034855 52 225 0.9 4.3 0.00 0.70 0.00 100 1032.3
20210801034355 52 292 3.5 5.2 0.00 0.70 0.00 100 1032.3
20210801033855 52 292 4.3 5.2 0.00 0.73 0.00 100 1032.0
20210801033355 52 292 4.3 5.2 0.00 0.73 0.00 100 1032.0
20210801032855 51 292 2.6 4.3 0.00 0.73 0.00 100 1032.0
20210801032356 51 292 4.3 4.3 0.00 0.73 0.00 100 1032.0
20210801031855 51 292 2.6 5.2 0.00 0.73 0.00 100 1032.0
20210801031355 52 292 3.5 5.2 0.00 0.73 0.00 100 1032.1
20210801030855 51 292 2.6 6.1 0.00 0.73 0.00 100 1031.7
20210801030355 51 270 5.2 5.2 0.00 0.73 0.00 100 1031.7
20210801025855 51 270 4.3 6.1 0.00 0.73 0.00 100 1031.7
20210801025355 52 315 4.3 5.2 0.00 0.73 0.00 100 1031.4
20210801024855 52 315 2.6 6.1 0.00 0.73 0.00 100 1031.8
20210801024355 52 292 2.6 5.2 0.00 0.73 0.00 100 1031.8
20210801023855 52 292 4.3 4.3 0.00 0.73 0.00 100 1031.8
20210801023355 52 270 0.9 3.5 0.00 0.73 0.00 100 1031.4
20210801022855 52 270 2.6 3.5 0.00 0.73 0.00 100 1031.4
20210801022355 52 225 1.7 5.2 0.00 0.73 0.00 100 1031.4
20210801021855 52 247 2.6 4.3 0.00 0.73 0.00 100 1031.4
20210801021355 52 247 2.6 4.3 0.00 0.73 0.00 100 1031.4
20210801020856 52 247 3.5 3.5 0.00 0.73 0.00 100 1031.4
20210801020355 52 247 2.6 5.2 0.00 0.73 0.00 100 1031.4
20210801015855 51 270 0.9 4.3 0.00 0.73 0.00 100 1031.4
20210801015400 51 270 2.6 4.3 0.00 0.73 0.00 100 1031.4
20210801014855 51 292 4.3 4.3 0.00 0.73 0.00 100 1031.5
20210801014355 51 315 0.9 4.3 0.00 0.73 0.00 100 1031.5
20210801013855 51 315 4.3 5.2 0.00 0.73 0.00 100 1031.1
20210801013355 51 292 4.3 5.2 0.02 0.73 0.00 100 1031.1
20210801012855 51 292 3.5 5.2 0.02 0.73 0.00 100 1031.5
20210801012356 51 0 4.3 7.0 0.04 0.73 0.00 100 1031.2
20210801011855 51 315 5.2 6.1 0.06 0.73 0.00 100 1031.2
20210801011355 52 337 4.3 6.1 0.08 0.73 0.00 100 1031.5
20210801010856 52 315 3.5 5.2 0.10 0.73 0.00 100 1031.5
20210801010355 52 337 4.3 7.0 0.13 0.73 0.00 100 1031.5
20210801005856 52 337 4.3 7.0 0.13 0.73 0.00 100 1031.5
20210801005355 52 22 3.5 5.2 0.14 0.73 0.00 100 1031.2
20210801004900 52 22 2.6 7.0 0.14 0.73 0.00 100 1031.2
20210801004355 53 67 4.3 6.1 0.15 0.73 0.00 100 1031.2
20210801003855 53 292 1.7 6.1 0.16 0.73 0.00 100 1031.5
20210801003355 53 22 2.6 4.3 0.14 0.71 0.00 100 1031.5
20210801002856 53 337 3.5 5.2 0.14 0.71 0.00 100 1031.5
20210801002355 53 0 1.7 7.0 0.13 0.69 0.00 100 1031.5
20210801001855 53 0 3.5 8.7 0.13 0.67 0.00 100 1031.2
20210801001355 53 0 2.6 7.8 0.09 0.64 0.00 100 1031.2
20210801000855 53 270 3.5 7.0 0.09 0.62 0.00 100 1031.2
20210801000355 53 337 2.6 2.6 0.08 0.60 0.00 100 1031.2
20210731235855 53 22 0.9 1.7 0.08 0.60 0.00 100 1031.5
20210731235355 53 45 0.9 2.6 0.10 0.58 0.00 100 1031.2
20210731234855 53 67 0.9 4.3 0.14 0.58 0.00 100 1031.2
20210731234355 53 0 2.6 4.3 0.14 0.57 0.00 100 1031.2
20210731233855 52 292 1.7 5.2 0.14 0.56 0.00 100 1031.5
20210731233355 53 0 4.3 7.0 0.16 0.56 0.00 100 1031.2
20210731232855 53 337 4.3 4.3 0.18 0.56 0.00 100 1031.5
20210731232355 53 337 2.6 4.3 0.18 0.56 0.00 100 1031.5
20210731231856 53 0 3.5 4.3 0.18 0.54 0.00 100 1031.5
20210731231355 53 337 2.6 5.2 0.18 0.54 0.00 100 1031.5
20210731230855 53 22 1.7 7.0 0.17 0.52 0.00 100 1031.5
20210731230355 53 45 2.6 5.2 0.16 0.52 0.00 100 1031.5
20210731225855 53 22 5.2 6.1 0.18 0.52 0.00 100 1031.5
20210731225355 53 337 3.5 7.0 0.14 0.48 0.00 100 1031.5
20210731224855 53 0 2.6 7.0 0.11 0.45 0.00 100 1031.6
20210731224355 54 0 3.5 5.2 0.09 0.42 0.00 100 1031.9
20210731223900 54 22 4.3 5.2 0.08 0.42 0.00 100 1031.6
20210731223355 54 45 2.6 4.3 0.08 0.39 0.00 100 1031.6
20210731222855 54 337 2.6 3.5 0.07 0.39 0.00 100 1031.6
20210731222355 54 292 1.7 4.3 0.06 0.38 0.00 100 1031.6
20210731221855 55 337 2.6 3.5 0.05 0.37 0.00 100 1031.9
20210731221355 55 0 1.7 2.6 0.05 0.37 0.00 100 1031.9
20210731220855 55 315 0.9 2.6 0.04 0.36 0.00 100 1031.9
20210731220355 55 315 0.9 2.6 0.04 0.36 0.00 100 1031.6
20210731215855 55 0 2.6 4.3 0.03 0.34 0.00 100 1031.6
20210731215355 55 315 1.7 2.6 0.03 0.34 0.00 100 1031.6
20210731214855 55 292 2.6 5.2 0.03 0.34 0.00 100 1031.6
20210731214355 55 292 3.5 6.1 0.02 0.33 0.00 100 1031.6
20210731213855 55 315 5.2 8.7 0.02 0.33 0.00 100 1031.7
20210731213355 55 270 4.3 7.8 0.00 0.31 0.00 99 1032.0
20210731212855 56 315 7.0 7.0 0.00 0.31 0.00 99 1032.0
20210731212355 56 337 5.2 6.1 0.00 0.31 0.00 99 1032.0
20210731211855 56 292 5.2 5.2 0.00 0.31 0.00 98 1032.0
20210731211355 57 315 1.7 2.6 0.00 0.31 0.00 98 1032.0
20210731210855 57 292 0.9 1.7 0.00 0.31 0.00 99 1032.0
20210731210355 57 315 0.9 0.9 0.00 0.31 0.00 99 1032.0
20210731205855 57 292 0.0 2.6 0.00 0.31 0.00 99 1032.0
20210731205355 57 45 1.7 3.5 0.00 0.31 0.00 99 1032.0
20210731204855 57 45 3.5 3.5 0.00 0.31 0.00 99 1032.1
20210731204356 57 270 1.7 2.6 0.00 0.31 0.00 100 1032.1
20210731203855 57 202 0.9 2.6 0.00 0.31 0.00 100 1032.1
20210731203355 57 67 4.3 4.3 0.00 0.31 0.00 100 1032.1
20210731202855 57 112 2.6 4.3 0.02 0.31 0.00 100 1032.1
20210731202355 57 67 1.7 5.2 0.02 0.31 0.00 100 1032.1
20210731201856 57 315 0.9 5.2 0.02 0.31 0.00 100 1032.1
20210731201355 57 45 2.6 4.3 0.04 0.31 0.00 99 1031.8
20210731200855 57 45 4.3 7.8 0.04 0.31 0.00 98 1032.2
20210731200355 57 22 0.9 7.0 0.06 0.31 0.00 98 1032.2
20210731195855 57 67 3.5 5.2 0.06 0.31 0.00 99 1031.9
20210731195355 58 67 4.3 6.1 0.06 0.31 0.00 99 1032.2
20210731194855 58 157 1.7 5.2 0.06 0.31 0.00 99 1032.2
20210731194355 57 67 2.6 5.2 0.06 0.31 0.00 99 1031.9
20210731193855 57 90 2.6 5.2 0.06 0.31 0.00 99 1031.9